User: anonymous   Login
Location: Kernascl�den
(48.0062°N, 3.3198°W)
Time: 21:27:14
(UTC+00:00)
Language:

Tsikada Rocket - Orbit

View from above orbital plane
View from above orbital plane
View from above satellite
View from above satellite

Ground track
Ground track

The orbit data is extracted from the following two-line orbital elements,

1 23466U 95002D   21104.57436149 -.00000061  00000-0 -80396-4 0  9993
2 23466  82.9218 308.9587 0033371 266.7589 146.4080 13.74441394314981
Epoch (UTC): 14 April 2021 13:47:04
Eccentricity: 0.0033371
inclination: 82.9218°
perigee height: 959 km
apogee height: 1008 km
right ascension of ascending node: 308.9587°
argument of perigee: 266.7589°
revolutions per day: 13.74441394
mean anomaly at epoch: 146.4080°
orbit number at epoch: 31498

The dashed part of the orbit path shows where the satellite is in the earth's shadow,  

DLR